Location: Capel Gartheli
(52.1833°N, 4.0667°W)
Time: 06:15:41
(UTC+00:00)

Cosmos 2100 Rocket - Pass Details

Date: 18 February 2020
Orbit: 955 x 1002 km, 82.9° (Epoch: 28 March)

Event Time Altitude Azimuth Distance (km) Brightness Sun altitude
Rises 05:17:11 0° 350° (N) 3,695 7.0 -20.5°
Reaches altitude 10° 05:19:43 10° 351° (N) 2,736 6.3 -20.1°
Maximum altitude 05:26:00 81° 80° (E) 986 4.1 -19.1°
Drops below altitude 10° 05:32:10 10° 167° (SSE) 2,689 6.4 -18.2°
Sets 05:34:39 0° 169° (SSE) 3,627 7.1 -17.8°
